SYRACUSE 4B

Last updated on Tue Sep 22 2026 00:03:16 GMT+0000 (Coordinated Universal Time)

1 57214U 23093B 26264.01814271 .00000000 00000+0 00000+0 0 9998 2 57214 0.0213 180.7420 0000290 82.7008 96.5539 1.00270371 7932
UTC large
Height (km)
Speed (km/s)
/
Latitude / Longitude
Inclination (degrees)
Orbital Period (minutes)
Azimuth
Elevation
Range (km)
Doppler Factor

Next 0 passes for location: London (51.5072 / 0.1276)

No passes found over London.
SYRACUSE 4B